Time,TemperatureF,DewpointF,PressureIn,WindDirection,WindDirectionDegrees,WindSpeedMPH,WindSpeedGustMPH,Humidity,HourlyPrecipIn,Conditions,Clouds,dailyrainin,SolarRadiationWatts/m^2,SoftwareType,DateUTC
2013-02-05 00:00:00,24.9,22.4,30.00,West,271,1.0,1.0,90,0.00,,,0.00,0,Wunderground v.1.15,2013-02-05 05:00:00,
2013-02-05 00:02:00,24.9,22.4,30.00,WNW,302,1.0,2.0,90,0.00,,,0.00,0,Wunderground v.1.15,2013-02-05 05:02:00,
2013-02-05 00:03:00,24.9,22.4,30.00,NW,321,1.0,2.0,90,0.00,,,0.00,0,Wunderground v.1.15,2013-02-05 05:03:00,
2013-02-05 00:09:00,24.9,22.4,30.00,NW,321,1.0,2.0,90,0.00,,,0.00,0,Wunderground v.1.15,2013-02-05 05:09:00,
2013-02-05 00:12:00,25.0,22.5,30.00,NW,321,1.0,1.0,90,0.00,,,0.00,0,Wunderground v.1.15,2013-02-05 05:12:00,
2013-02-05 00:18:00,25.0,22.5,29.99,NNW,342,1.0,2.0,90,0.00,,,0.00,0,Wunderground v.1.15,2013-02-05 05:18:00,
2013-02-05 00:24:00,25.0,22.5,30.00,SSW,202,1.0,4.0,90,0.00,,,0.00,0,Wunderground v.1.15,2013-02-05 05:24:00,
2013-02-05 00:29:00,25.1,22.6,29.99,SE,142,1.0,4.0,90,0.00,,,0.00,0,Wunderground v.1.15,2013-02-05 05:29:00,
2013-02-05 00:34:00,25.1,22.6,29.99,South,180,1.0,4.0,90,0.00,,,0.00,0,Wunderground v.1.15,2013-02-05 05:34:00,
2013-02-05 00:40:00,25.0,22.5,29.99,South,187,2.0,6.0,90,0.00,,,0.00,0,Wunderground v.1.15,2013-02-05 05:40:00,
2013-02-05 00:45:00,25.0,22.5,29.99,South,172,2.0,4.0,90,0.00,,,0.00,0,Wunderground v.1.15,2013-02-05 05:45:00,
2013-02-05 00:51:00,25.1,22.6,29.98,South,175,1.0,1.0,90,0.00,,,0.00,0,Wunderground v.1.15,2013-02-05 05:51:00,
2013-02-05 00:57:00,25.1,22.6,29.98,NE,37,1.0,5.0,90,0.00,,,0.00,0,Wunderground v.1.15,2013-02-05 05:57:00,
2013-02-05 01:02:00,25.0,22.5,29.99,NE,49,1.0,1.0,90,0.00,,,0.00,0,Wunderground v.1.15,2013-02-05 06:02:00,
2013-02-05 01:07:00,25.1,22.8,29.99,ENE,66,1.0,2.0,91,0.00,,,0.00,0,Wunderground v.1.15,2013-02-05 06:07:00,
2013-02-05 01:13:00,25.1,22.6,29.99,ESE,123,1.0,2.0,90,0.00,,,0.00,0,Wunderground v.1.15,2013-02-05 06:13:00,
2013-02-05 01:19:00,25.1,22.6,29.99,SSE,156,1.0,2.0,90,0.00,,,0.00,0,Wunderground v.1.15,2013-02-05 06:19:00,
2013-02-05 01:24:00,25.2,22.7,29.99,East,88,1.0,2.0,90,0.00,,,0.00,0,Wunderground v.1.15,2013-02-05 06:24:00,
2013-02-05 01:30:00,25.1,22.6,29.99,ENE,66,1.0,1.0,90,0.00,,,0.00,0,Wunderground v.1.15,2013-02-05 06:30:00,
2013-02-05 01:35:00,25.1,22.6,29.99,NE,49,1.0,2.0,90,0.00,,,0.00,0,Wunderground v.1.15,2013-02-05 06:35:00,
2013-02-05 01:41:00,25.1,22.6,30.00,NE,39,1.0,2.0,90,0.00,,,0.00,0,Wunderground v.1.15,2013-02-05 06:41:00,
2013-02-05 01:46:00,25.1,22.6,29.99,NE,35,1.0,2.0,90,0.00,,,0.00,0,Wunderground v.1.15,2013-02-05 06:46:00,
2013-02-05 01:51:00,25.1,22.6,29.99,NE,35,1.0,1.0,90,0.00,,,0.00,0,Wunderground v.1.15,2013-02-05 06:51:00,
2013-02-05 01:57:00,25.1,22.8,29.99,NE,34,1.0,1.0,91,0.00,,,0.00,0,Wunderground v.1.15,2013-02-05 06:57:00,
2013-02-05 02:02:00,25.2,22.7,29.99,NE,34,0.0,0.0,90,0.00,,,0.00,0,Wunderground v.1.15,2013-02-05 07:02:00,
2013-02-05 02:08:00,25.2,22.7,29.99,SSE,148,0.0,2.0,90,0.00,,,0.00,0,Wunderground v.1.15,2013-02-05 07:08:00,
2013-02-05 02:14:00,25.2,22.7,29.99,SSE,150,0.0,0.0,90,0.00,,,0.00,0,Wunderground v.1.15,2013-02-05 07:14:00,
2013-02-05 02:19:00,25.1,22.6,29.99,ENE,68,0.0,2.0,90,0.00,,,0.00,0,Wunderground v.1.15,2013-02-05 07:19:00,
2013-02-05 02:25:00,25.1,22.6,29.99,ENE,68,1.0,1.0,90,0.00,,,0.00,0,Wunderground v.1.15,2013-02-05 07:25:00,
2013-02-05 02:31:00,25.1,22.6,29.98,SSW,209,1.0,4.0,90,0.00,,,0.00,0,Wunderground v.1.15,2013-02-05 07:31:00,
2013-02-05 02:37:00,25.1,22.6,29.98,SSE,153,1.0,4.0,90,0.00,,,0.00,0,Wunderground v.1.15,2013-02-05 07:37:00,
2013-02-05 02:43:00,25.0,22.5,29.98,NE,48,1.0,1.0,90,0.00,,,0.00,0,Wunderground v.1.15,2013-02-05 07:43:00,
2013-02-05 02:48:00,25.0,22.5,29.97,ENE,65,1.0,1.0,90,0.00,,,0.00,0,Wunderground v.1.15,2013-02-05 07:48:00,
2013-02-05 02:53:00,25.0,22.5,29.97,NNE,26,1.0,2.0,90,0.00,,,0.00,0,Wunderground v.1.15,2013-02-05 07:53:00,
2013-02-05 02:59:00,25.0,22.5,29.97,NNE,28,1.0,2.0,90,0.00,,,0.00,0,Wunderground v.1.15,2013-02-05 07:59:00,
2013-02-05 03:04:00,25.0,22.5,29.97,NNE,26,1.0,3.0,90,0.00,,,0.00,0,Wunderground v.1.15,2013-02-05 08:04:00,
2013-02-05 03:10:00,25.0,22.5,29.96,NNE,24,1.0,1.0,90,0.00,,,0.00,0,Wunderground v.1.15,2013-02-05 08:10:00,
2013-02-05 03:15:00,25.0,22.5,29.96,NNE,22,1.0,2.0,90,0.00,,,0.00,0,Wunderground v.1.15,2013-02-05 08:15:00,
2013-02-05 03:21:00,25.1,22.8,29.97,NE,37,1.0,2.0,91,0.00,,,0.00,0,Wunderground v.1.15,2013-02-05 08:21:00,
2013-02-05 03:27:00,25.0,22.5,29.97,NE,49,1.0,3.0,90,0.00,,,0.00,0,Wunderground v.1.15,2013-02-05 08:27:00,
2013-02-05 03:32:00,25.0,22.5,29.97,NE,48,1.0,1.0,90,0.00,,,0.00,0,Wunderground v.1.15,2013-02-05 08:32:00,
2013-02-05 03:38:00,25.1,22.6,29.97,NNE,28,1.0,2.0,90,0.00,,,0.00,0,Wunderground v.1.15,2013-02-05 08:38:00,
2013-02-05 03:43:00,25.1,22.6,29.97,NNE,27,1.0,2.0,90,0.00,,,0.00,0,Wunderground v.1.15,2013-02-05 08:43:00,
2013-02-05 03:48:00,25.1,22.6,29.97,NNE,28,1.0,2.0,90,0.00,,,0.00,0,Wunderground v.1.15,2013-02-05 08:48:00,
2013-02-05 03:54:00,25.2,22.7,29.98,NNE,19,1.0,1.0,90,0.00,,,0.00,0,Wunderground v.1.15,2013-02-05 08:54:00,
2013-02-05 04:00:00,25.2,22.7,29.98,NNE,19,1.0,1.0,90,0.00,,,0.00,0,Wunderground v.1.15,2013-02-05 09:00:00,
2013-02-05 04:06:00,25.2,22.7,29.98,NNE,17,0.0,1.0,90,0.00,,,0.00,0,Wunderground v.1.15,2013-02-05 09:06:00,
2013-02-05 04:12:00,25.2,22.7,29.98,North,9,1.0,2.0,90,0.00,,,0.00,0,Wunderground v.1.15,2013-02-05 09:12:00,
2013-02-05 04:18:00,25.2,22.7,29.99,North,5,1.0,2.0,90,0.00,,,0.00,0,Wunderground v.1.15,2013-02-05 09:18:00,
2013-02-05 04:24:00,25.2,22.7,29.99,NW,317,1.0,2.0,90,0.00,,,0.00,0,Wunderground v.1.15,2013-02-05 09:24:00,
2013-02-05 04:30:00,25.1,22.8,29.99,NW,314,1.0,2.0,91,0.00,,,0.00,0,Wunderground v.1.15,2013-02-05 09:30:00,
2013-02-05 04:36:00,25.1,22.8,29.99,NW,314,1.0,2.0,91,0.00,,,0.00,0,Wunderground v.1.15,2013-02-05 09:36:00,
2013-02-05 04:42:00,25.1,22.8,29.99,NNW,345,1.0,2.0,91,0.00,,,0.00,0,Wunderground v.1.15,2013-02-05 09:42:00,
2013-02-05 04:47:00,25.1,22.8,29.98,NNE,22,1.0,2.0,91,0.00,,,0.00,0,Wunderground v.1.15,2013-02-05 09:47:00,
2013-02-05 04:53:00,25.1,22.8,29.98,NNE,24,1.0,1.0,91,0.00,,,0.00,0,Wunderground v.1.15,2013-02-05 09:53:00,
2013-02-05 04:58:00,25.1,22.8,29.98,NNE,25,1.0,1.0,91,0.00,,,0.00,0,Wunderground v.1.15,2013-02-05 09:58:00,
2013-02-05 05:03:00,25.1,22.8,29.98,NNE,19,1.0,1.0,91,0.00,,,0.00,0,Wunderground v.1.15,2013-02-05 10:03:00,
2013-02-05 05:09:00,25.1,22.8,29.98,North,5,1.0,1.0,91,0.00,,,0.00,0,Wunderground v.1.15,2013-02-05 10:09:00,
2013-02-05 05:15:00,25.1,22.6,29.98,NNE,16,1.0,2.0,90,0.00,,,0.00,0,Wunderground v.1.15,2013-02-05 10:15:00,
2013-02-05 05:21:00,25.1,22.8,29.98,North,355,1.0,1.0,91,0.00,,,0.00,0,Wunderground v.1.15,2013-02-05 10:21:00,
2013-02-05 05:27:00,25.1,22.6,29.98,NNW,342,1.0,1.0,90,0.00,,,0.00,0,Wunderground v.1.15,2013-02-05 10:27:00,
2013-02-05 05:33:00,25.1,22.6,29.99,NNW,338,1.0,2.0,90,0.00,,,0.00,0,Wunderground v.1.15,2013-02-05 10:33:00,
2013-02-05 05:38:00,25.1,22.6,29.99,NNW,338,1.0,2.0,90,0.00,,,0.00,0,Wunderground v.1.15,2013-02-05 10:38:00,
2013-02-05 05:44:00,25.1,22.6,29.98,NNW,344,1.0,2.0,90,0.00,,,0.00,0,Wunderground v.1.15,2013-02-05 10:44:00,
2013-02-05 05:49:00,25.2,22.9,29.99,WSW,238,1.0,2.0,91,0.00,,,0.00,0,Wunderground v.1.15,2013-02-05 10:49:00,
2013-02-05 05:54:00,25.3,23.0,29.99,NW,305,1.0,1.0,91,0.00,,,0.00,0,Wunderground v.1.15,2013-02-05 10:54:00,
2013-02-05 06:00:00,25.3,23.0,30.00,NW,323,1.0,2.0,91,0.00,,,0.00,0,Wunderground v.1.15,2013-02-05 11:00:00,
2013-02-05 06:05:00,25.2,22.9,30.00,NW,325,1.0,2.0,91,0.00,,,0.00,0,Wunderground v.1.15,2013-02-05 11:05:00,
2013-02-05 06:11:00,25.3,23.0,29.99,NNW,338,1.0,1.0,91,0.00,,,0.00,0,Wunderground v.1.15,2013-02-05 11:11:00,
2013-02-05 06:17:00,25.2,22.7,29.99,NW,315,1.0,4.0,90,0.00,,,0.00,0,Wunderground v.1.15,2013-02-05 11:17:00,
2013-02-05 06:22:00,25.1,22.8,29.99,NW,315,1.0,1.0,91,0.00,,,0.00,0,Wunderground v.1.15,2013-02-05 11:22:00,
2013-02-05 06:28:00,25.1,22.8,29.99,NNW,327,1.0,2.0,91,0.00,,,0.00,0,Wunderground v.1.15,2013-02-05 11:28:00,
2013-02-05 06:34:00,25.1,22.8,29.99,NW,315,1.0,2.0,91,0.00,,,0.00,0,Wunderground v.1.15,2013-02-05 11:34:00,
2013-02-05 06:39:00,25.0,22.7,29.99,NW,312,2.0,3.0,91,0.00,,,0.00,0,Wunderground v.1.15,2013-02-05 11:39:00,
2013-02-05 06:45:00,24.8,22.5,30.00,NW,323,2.0,5.0,91,0.00,,,0.00,0,Wunderground v.1.15,2013-02-05 11:45:00,
2013-02-05 06:50:00,24.9,22.9,30.00,NW,321,2.0,2.0,92,0.00,,,0.00,0,Wunderground v.1.15,2013-02-05 11:50:00,
2013-02-05 06:56:00,24.9,22.9,30.00,NW,325,2.0,2.0,92,0.00,,,0.00,0,Wunderground v.1.15,2013-02-05 11:56:00,
2013-02-05 07:01:00,24.9,22.9,30.00,NW,317,2.0,2.0,92,0.00,,,0.00,0,Wunderground v.1.15,2013-02-05 12:01:00,
2013-02-05 07:06:00,24.9,22.9,30.00,NW,325,2.0,2.0,92,0.00,,,0.00,0,Wunderground v.1.15,2013-02-05 12:06:00,
2013-02-05 07:12:00,24.9,22.6,30.00,NW,311,2.0,2.0,91,0.00,,,0.00,0,Wunderground v.1.15,2013-02-05 12:12:00,
2013-02-05 07:17:00,24.9,22.6,30.01,NW,315,1.0,2.0,91,0.00,,,0.00,0,Wunderground v.1.15,2013-02-05 12:17:00,
2013-02-05 07:22:00,25.0,22.7,30.01,NW,315,1.0,1.0,91,0.00,,,0.00,0,Wunderground v.1.15,2013-02-05 12:22:00,
2013-02-05 07:27:00,25.1,22.8,30.01,NW,313,1.0,4.0,91,0.00,,,0.00,0,Wunderground v.1.15,2013-02-05 12:27:00,
2013-02-05 07:33:00,25.1,22.8,30.01,NW,313,1.0,1.0,91,0.00,,,0.00,0,Wunderground v.1.15,2013-02-05 12:33:00,
2013-02-05 07:39:00,25.1,22.8,30.01,NW,318,1.0,2.0,91,0.00,,,0.00,7,Wunderground v.1.15,2013-02-05 12:39:00,
2013-02-05 07:45:00,25.3,23.0,30.01,NW,318,1.0,1.0,91,0.00,,,0.00,12,Wunderground v.1.15,2013-02-05 12:45:00,
2013-02-05 07:50:00,25.3,23.0,30.02,NW,318,1.0,1.0,91,0.00,,,0.00,12,Wunderground v.1.15,2013-02-05 12:50:00,
2013-02-05 07:56:00,25.5,23.2,30.01,NW,318,1.0,1.0,91,0.00,,,0.00,18,Wunderground v.1.15,2013-02-05 12:56:00,
2013-02-05 08:01:00,25.6,23.3,30.01,NW,321,1.0,1.0,91,0.00,,,0.00,19,Wunderground v.1.15,2013-02-05 13:01:00,
2013-02-05 08:07:00,25.7,23.4,30.01,ESE,107,1.0,2.0,91,0.00,,,0.00,23,Wunderground v.1.15,2013-02-05 13:07:00,
2013-02-05 08:13:00,25.8,23.5,30.01,SE,130,1.0,2.0,91,0.00,,,0.00,26,Wunderground v.1.15,2013-02-05 13:13:00,
2013-02-05 08:18:00,25.8,23.3,30.02,East,84,1.0,2.0,90,0.00,,,0.00,26,Wunderground v.1.15,2013-02-05 13:18:00,
2013-02-05 08:24:00,25.9,23.6,30.02,North,360,1.0,2.0,91,0.00,,,0.00,32,Wunderground v.1.15,2013-02-05 13:24:00,
2013-02-05 08:30:00,26.0,23.7,30.03,North,355,1.0,1.0,91,0.00,,,0.00,32,Wunderground v.1.15,2013-02-05 13:30:00,
2013-02-05 08:36:00,26.1,23.6,30.02,NNW,338,1.0,2.0,90,0.00,,,0.00,42,Wunderground v.1.15,2013-02-05 13:36:00,
2013-02-05 08:41:00,26.2,23.7,30.03,NNW,347,1.0,1.0,90,0.00,,,0.00,46,Wunderground v.1.15,2013-02-05 13:41:00,
2013-02-05 08:47:00,26.3,23.8,30.03,NNE,15,1.0,1.0,90,0.00,,,0.00,49,Wunderground v.1.15,2013-02-05 13:47:00,
2013-02-05 08:52:00,26.3,23.8,30.03,NE,34,1.0,1.0,90,0.00,,,0.00,60,Wunderground v.1.15,2013-02-05 13:52:00,
2013-02-05 08:58:00,26.5,24.0,30.02,NNW,342,1.0,2.0,90,0.00,,,0.00,72,Wunderground v.1.15,2013-02-05 13:58:00,
2013-02-05 09:04:00,26.7,23.9,30.02,NNE,17,1.0,2.0,89,0.00,,,0.00,81,Wunderground v.1.15,2013-02-05 14:04:00,
2013-02-05 09:10:00,26.8,24.0,30.03,North,5,1.0,1.0,89,0.00,,,0.00,83,Wunderground v.1.15,2013-02-05 14:10:00,
2013-02-05 09:16:00,26.9,24.1,30.03,North,5,1.0,1.0,89,0.00,,,0.00,83,Wunderground v.1.15,2013-02-05 14:16:00,
2013-02-05 09:22:00,27.0,24.5,30.03,NNW,348,1.0,1.0,90,0.00,,,0.00,83,Wunderground v.1.15,2013-02-05 14:22:00,
2013-02-05 09:28:00,27.2,24.4,30.04,NNW,346,1.0,1.0,89,0.00,,,0.00,93,Wunderground v.1.15,2013-02-05 14:28:00,
2013-02-05 09:33:00,27.3,24.5,30.03,NNE,22,1.0,1.0,89,0.00,,,0.00,109,Wunderground v.1.15,2013-02-05 14:33:00,
2013-02-05 09:39:00,27.4,24.3,30.03,South,176,1.0,3.0,88,0.00,,,0.00,146,Wunderground v.1.15,2013-02-05 14:39:00,
2013-02-05 09:44:00,27.4,24.3,30.03,SSE,154,2.0,3.0,88,0.00,,,0.00,160,Wunderground v.1.15,2013-02-05 14:44:00,
2013-02-05 09:50:00,27.5,24.4,30.02,South,186,2.0,2.0,88,0.00,,,0.00,171,Wunderground v.1.15,2013-02-05 14:50:00,
2013-02-05 09:55:00,27.5,24.4,30.03,SSW,209,3.0,5.0,88,0.00,,,0.00,186,Wunderground v.1.15,2013-02-05 14:55:00,
2013-02-05 10:00:00,27.5,24.4,30.03,NW,315,3.0,3.0,88,0.00,,,0.00,186,Wunderground v.1.15,2013-02-05 15:00:00,
2013-02-05 10:06:00,27.9,24.8,30.03,South,180,2.0,3.0,88,0.00,,,0.00,185,Wunderground v.1.15,2013-02-05 15:06:00,
2013-02-05 10:12:00,28.2,24.8,30.03,SSE,149,1.0,1.0,87,0.00,,,0.00,199,Wunderground v.1.15,2013-02-05 15:12:00,
2013-02-05 10:17:00,28.0,24.4,30.03,SSW,194,2.0,4.0,86,0.00,,,0.00,202,Wunderground v.1.15,2013-02-05 15:17:00,
2013-02-05 10:23:00,28.0,24.4,30.03,South,175,2.0,5.0,86,0.00,,,0.00,172,Wunderground v.1.15,2013-02-05 15:23:00,
2013-02-05 10:28:00,27.8,24.2,30.03,South,190,3.0,6.0,86,0.00,,,0.00,221,Wunderground v.1.15,2013-02-05 15:28:00,
2013-02-05 10:34:00,27.8,24.2,30.03,SSW,213,5.0,7.0,86,0.00,,,0.00,225,Wunderground v.1.15,2013-02-05 15:34:00,
2013-02-05 10:39:00,28.0,24.6,30.03,NNE,30,4.0,7.0,87,0.00,,,0.00,211,Wunderground v.1.15,2013-02-05 15:39:00,
2013-02-05 10:45:00,28.3,24.6,30.03,South,179,3.0,5.0,86,0.00,,,0.00,271,Wunderground v.1.15,2013-02-05 15:45:00,
2013-02-05 10:50:00,28.3,24.4,30.03,SSW,193,3.0,6.0,85,0.00,,,0.00,225,Wunderground v.1.15,2013-02-05 15:50:00,
2013-02-05 10:55:00,28.5,24.3,30.03,South,190,3.0,4.0,84,0.00,,,0.00,237,Wunderground v.1.15,2013-02-05 15:55:00,
2013-02-05 11:00:00,28.6,24.4,30.03,NE,42,3.0,3.0,84,0.00,,,0.00,225,Wunderground v.1.15,2013-02-05 16:00:00,
2013-02-05 11:06:00,28.9,24.7,30.03,NNE,27,2.0,4.0,84,0.00,,,0.00,204,Wunderground v.1.15,2013-02-05 16:06:00,
2013-02-05 11:11:00,29.0,24.8,30.03,SSE,167,1.0,1.0,84,0.00,,,0.00,202,Wunderground v.1.15,2013-02-05 16:11:00,
2013-02-05 11:17:00,29.0,24.8,30.03,SSW,199,2.0,4.0,84,0.00,,,0.00,209,Wunderground v.1.15,2013-02-05 16:17:00,
2013-02-05 11:23:00,29.1,24.6,30.02,South,189,2.0,5.0,83,0.00,,,0.00,285,Wunderground v.1.15,2013-02-05 16:23:00,
2013-02-05 11:29:00,29.2,24.7,30.02,NNE,29,2.0,5.0,83,0.00,,,0.01,241,Wunderground v.1.15,2013-02-05 16:29:00,
2013-02-05 11:34:00,29.4,24.9,30.02,NE,51,2.0,2.0,83,0.00,,,0.01,255,Wunderground v.1.15,2013-02-05 16:34:00,
2013-02-05 11:39:00,29.7,25.2,30.01,SSE,149,1.0,2.0,83,0.00,,,0.01,255,Wunderground v.1.15,2013-02-05 16:39:00,
2013-02-05 11:45:00,29.9,25.1,30.01,South,184,1.0,5.0,82,0.00,,,0.01,237,Wunderground v.1.15,2013-02-05 16:45:00,
2013-02-05 11:50:00,29.5,24.7,30.01,South,174,3.0,3.0,82,0.00,,,0.01,239,Wunderground v.1.15,2013-02-05 16:50:00,
2013-02-05 11:56:00,29.3,24.8,30.01,South,187,3.0,5.0,83,0.00,,,0.01,241,Wunderground v.1.15,2013-02-05 16:56:00,
2013-02-05 12:02:00,29.6,25.1,30.00,SSE,162,2.0,2.0,83,0.00,,,0.01,236,Wunderground v.1.15,2013-02-05 17:02:00,
2013-02-05 12:07:00,29.8,25.3,30.00,SSE,167,2.0,4.0,83,0.00,,,0.01,239,Wunderground v.1.15,2013-02-05 17:07:00,
2013-02-05 12:13:00,29.9,25.1,30.00,SSE,160,2.0,2.0,82,0.00,,,0.01,190,Wunderground v.1.15,2013-02-05 17:13:00,
2013-02-05 12:19:00,30.1,25.6,29.99,ENE,57,1.0,2.0,83,0.00,,,0.01,178,Wunderground v.1.15,2013-02-05 17:19:00,
2013-02-05 12:25:00,30.3,25.5,29.99,NE,51,1.0,1.0,82,0.00,,,0.01,128,Wunderground v.1.15,2013-02-05 17:25:00,
2013-02-05 12:31:00,30.2,25.4,29.99,SSE,167,1.0,1.0,82,0.00,,,0.02,114,Wunderground v.1.15,2013-02-05 17:31:00,
2013-02-05 12:37:00,30.2,25.4,29.99,ESE,103,1.0,2.0,82,0.00,,,0.02,118,Wunderground v.1.15,2013-02-05 17:37:00,
2013-02-05 12:42:00,30.3,25.2,29.98,East,86,1.0,1.0,81,0.00,,,0.02,127,Wunderground v.1.15,2013-02-05 17:42:00,
2013-02-05 12:48:00,30.4,25.3,29.98,East,101,1.0,1.0,81,0.00,,,0.02,149,Wunderground v.1.15,2013-02-05 17:48:00,
2013-02-05 12:54:00,30.6,25.5,29.98,NE,54,1.0,1.0,81,0.00,,,0.02,206,Wunderground v.1.15,2013-02-05 17:54:00,
2013-02-05 13:00:00,30.7,25.9,29.97,NNE,21,1.0,1.0,82,0.00,,,0.02,192,Wunderground v.1.15,2013-02-05 18:00:00,
2013-02-05 13:05:00,31.0,25.9,29.97,NNE,21,1.0,1.0,81,0.00,,,0.02,192,Wunderground v.1.15,2013-02-05 18:05:00,
2013-02-05 13:11:00,31.1,25.7,29.97,South,184,1.0,2.0,80,0.00,,,0.02,181,Wunderground v.1.15,2013-02-05 18:11:00,
2013-02-05 13:17:00,30.9,25.5,29.97,ENE,67,2.0,2.0,80,0.00,,,0.02,165,Wunderground v.1.15,2013-02-05 18:17:00,
2013-02-05 13:23:00,30.9,25.8,29.96,NNW,339,1.0,2.0,81,0.00,,,0.02,156,Wunderground v.1.15,2013-02-05 18:23:00,
2013-02-05 13:28:00,30.9,25.8,29.96,ENE,61,1.0,2.0,81,0.00,,,0.02,123,Wunderground v.1.15,2013-02-05 18:28:00,
2013-02-05 13:35:00,30.8,26.0,29.96,WSW,238,2.0,2.0,82,0.00,,,0.02,111,Wunderground v.1.15,2013-02-05 18:35:00,
2013-02-05 13:41:00,30.7,25.6,29.96,South,180,1.0,4.0,81,0.00,,,0.02,86,Wunderground v.1.15,2013-02-05 18:41:00,
2013-02-05 13:46:00,30.7,25.6,29.96,South,180,2.0,4.0,81,0.00,,,0.02,100,Wunderground v.1.15,2013-02-05 18:46:00,
2013-02-05 13:52:00,30.6,25.5,29.97,SE,146,2.0,2.0,81,0.00,,,0.02,86,Wunderground v.1.15,2013-02-05 18:52:00,
2013-02-05 13:58:00,30.7,25.9,29.97,SE,143,2.0,5.0,82,0.00,,,0.02,88,Wunderground v.1.15,2013-02-05 18:58:00,
2013-02-05 14:04:00,30.6,25.8,29.96,SE,141,3.0,3.0,82,0.00,,,0.02,97,Wunderground v.1.15,2013-02-05 19:04:00,
2013-02-05 14:09:00,30.5,25.4,29.96,SE,141,1.0,3.0,81,0.00,,,0.02,121,Wunderground v.1.15,2013-02-05 19:09:00,
2013-02-05 14:15:00,30.6,25.8,29.95,South,185,1.0,4.0,82,0.00,,,0.02,100,Wunderground v.1.15,2013-02-05 19:15:00,
2013-02-05 14:21:00,30.7,25.9,29.96,SSW,196,2.0,2.0,82,0.00,,,0.02,102,Wunderground v.1.15,2013-02-05 19:21:00,
2013-02-05 14:26:00,30.7,25.9,29.95,South,187,2.0,3.0,82,0.00,,,0.02,95,Wunderground v.1.15,2013-02-05 19:26:00,
2013-02-05 14:32:00,30.9,26.1,29.96,SE,146,1.0,1.0,82,0.00,,,0.02,88,Wunderground v.1.15,2013-02-05 19:32:00,
2013-02-05 14:38:00,31.1,26.2,29.95,NNW,347,1.0,2.0,82,0.00,,,0.02,93,Wunderground v.1.15,2013-02-05 19:38:00,
2013-02-05 14:44:00,31.1,26.0,29.95,SSE,158,1.0,2.0,81,0.00,,,0.02,95,Wunderground v.1.15,2013-02-05 19:44:00,
2013-02-05 14:49:00,31.1,26.0,29.96,SSE,155,1.0,2.0,81,0.00,,,0.02,69,Wunderground v.1.15,2013-02-05 19:49:00,
2013-02-05 14:55:00,31.0,25.9,29.95,SSE,163,1.0,2.0,81,0.00,,,0.02,56,Wunderground v.1.15,2013-02-05 19:55:00,
2013-02-05 15:00:00,31.0,26.1,29.95,South,186,2.0,2.0,82,0.00,,,0.02,54,Wunderground v.1.15,2013-02-05 20:00:00,
2013-02-05 15:05:00,31.0,26.1,29.95,South,169,2.0,2.0,82,0.00,,,0.02,62,Wunderground v.1.15,2013-02-05 20:05:00,
2013-02-05 15:11:00,31.1,26.2,29.95,SSE,160,1.0,2.0,82,0.00,,,0.02,65,Wunderground v.1.15,2013-02-05 20:11:00,
2013-02-05 15:17:00,31.2,26.3,29.96,SSE,153,1.0,2.0,82,0.00,,,0.02,63,Wunderground v.1.15,2013-02-05 20:17:00,
2013-02-05 15:22:00,31.2,26.3,29.96,SSE,153,1.0,1.0,82,0.00,,,0.02,56,Wunderground v.1.15,2013-02-05 20:22:00,
2013-02-05 15:28:00,31.3,26.4,29.95,SE,140,1.0,4.0,82,0.00,,,0.02,54,Wunderground v.1.15,2013-02-05 20:28:00,
2013-02-05 15:33:00,31.4,26.2,29.95,ESE,113,1.0,1.0,81,0.00,,,0.02,51,Wunderground v.1.15,2013-02-05 20:33:00,
2013-02-05 15:38:00,31.3,26.1,29.95,SE,144,1.0,2.0,81,0.00,,,0.02,35,Wunderground v.1.15,2013-02-05 20:38:00,
2013-02-05 15:44:00,31.2,26.3,29.95,SE,144,1.0,1.0,82,0.00,,,0.02,35,Wunderground v.1.15,2013-02-05 20:44:00,
2013-02-05 15:49:00,31.1,26.2,29.95,SE,144,0.0,1.0,82,0.00,,,0.02,28,Wunderground v.1.15,2013-02-05 20:49:00,
2013-02-05 15:55:00,31.2,26.6,29.95,SE,146,0.0,0.0,83,0.00,,,0.02,30,Wunderground v.1.15,2013-02-05 20:55:00,
2013-02-05 16:00:00,31.2,26.6,29.94,ESE,105,0.0,1.0,83,0.00,,,0.02,32,Wunderground v.1.15,2013-02-05 21:00:00,
2013-02-05 16:05:00,31.2,26.6,29.94,ESE,105,1.0,1.0,83,0.00,,,0.02,26,Wunderground v.1.15,2013-02-05 21:05:00,
2013-02-05 16:10:00,31.2,26.9,29.94,ESE,105,1.0,1.0,84,0.00,,,0.02,32,Wunderground v.1.15,2013-02-05 21:10:00,
2013-02-05 16:16:00,31.3,27.0,29.94,East,89,1.0,1.0,84,0.00,,,0.02,56,Wunderground v.1.15,2013-02-05 21:16:00,
2013-02-05 16:22:00,31.4,27.1,29.94,East,80,1.0,1.0,84,0.00,,,0.02,25,Wunderground v.1.15,2013-02-05 21:22:00,
2013-02-05 16:28:00,31.3,27.0,29.94,ENE,76,1.0,2.0,84,0.00,,,0.02,25,Wunderground v.1.15,2013-02-05 21:28:00,
2013-02-05 16:34:00,31.2,27.2,29.94,ENE,59,1.0,1.0,85,0.00,,,0.02,21,Wunderground v.1.15,2013-02-05 21:34:00,
2013-02-05 16:40:00,31.1,27.1,29.94,NE,53,1.0,1.0,85,0.00,,,0.02,21,Wunderground v.1.15,2013-02-05 21:40:00,
2013-02-05 16:45:00,31.1,27.1,29.94,NE,53,1.0,2.0,85,0.00,,,0.02,16,Wunderground v.1.15,2013-02-05 21:45:00,
2013-02-05 16:51:00,31.1,27.1,29.94,NNE,26,1.0,1.0,85,0.00,,,0.02,14,Wunderground v.1.15,2013-02-05 21:51:00,
2013-02-05 16:57:00,31.1,27.1,29.94,NE,44,1.0,2.0,85,0.00,,,0.02,12,Wunderground v.1.15,2013-02-05 21:57:00,
2013-02-05 17:03:00,31.0,27.0,29.94,NE,34,1.0,2.0,85,0.00,,,0.02,7,Wunderground v.1.15,2013-02-05 22:03:00,
2013-02-05 17:09:00,30.8,27.1,29.94,NNW,330,1.0,2.0,86,0.00,,,0.02,0,Wunderground v.1.15,2013-02-05 22:09:00,
2013-02-05 17:15:00,30.8,27.1,29.94,NNW,337,1.0,2.0,86,0.00,,,0.02,0,Wunderground v.1.15,2013-02-05 22:15:00,
2013-02-05 17:21:00,30.7,27.0,29.94,North,355,1.0,1.0,86,0.00,,,0.02,0,Wunderground v.1.15,2013-02-05 22:21:00,
2013-02-05 17:26:00,30.7,27.3,29.94,NNE,22,1.0,2.0,87,0.00,,,0.02,0,Wunderground v.1.15,2013-02-05 22:26:00,
2013-02-05 17:32:00,30.6,27.5,29.94,North,5,1.0,1.0,88,0.00,,,0.02,0,Wunderground v.1.15,2013-02-05 22:32:00,
2013-02-05 17:38:00,30.5,27.4,29.94,North,355,1.0,2.0,88,0.00,,,0.02,0,Wunderground v.1.15,2013-02-05 22:38:00,
2013-02-05 17:44:00,30.4,27.3,29.94,North,355,1.0,1.0,88,0.00,,,0.02,0,Wunderground v.1.15,2013-02-05 22:44:00,
2013-02-05 17:49:00,30.4,27.3,29.94,West,264,1.0,3.0,88,0.00,,,0.02,0,Wunderground v.1.15,2013-02-05 22:49:00,
2013-02-05 17:55:00,30.3,27.4,29.94,SSW,200,1.0,2.0,89,0.00,,,0.02,0,Wunderground v.1.15,2013-02-05 22:55:00,
2013-02-05 18:00:00,30.2,27.3,29.95,SSW,202,2.0,2.0,89,0.00,,,0.02,0,Wunderground v.1.15,2013-02-05 23:00:00,
2013-02-05 18:06:00,30.3,27.4,29.95,SSW,198,1.0,2.0,89,0.00,,,0.02,0,Wunderground v.1.15,2013-02-05 23:06:00,
2013-02-05 18:12:00,30.2,27.3,29.95,SSW,192,0.0,1.0,89,0.00,,,0.02,0,Wunderground v.1.15,2013-02-05 23:12:00,
2013-02-05 18:18:00,30.3,27.4,29.95,SSW,197,0.0,1.0,89,0.00,,,0.02,0,Wunderground v.1.15,2013-02-05 23:18:00,
2013-02-05 18:24:00,30.2,27.3,29.96,SSW,197,0.0,1.0,89,0.00,,,0.02,0,Wunderground v.1.15,2013-02-05 23:24:00,
2013-02-05 18:30:00,30.2,27.3,29.96,SSW,197,0.0,0.0,89,0.00,,,0.02,0,Wunderground v.1.15,2013-02-05 23:30:00,
2013-02-05 18:36:00,30.2,27.6,29.96,South,171,1.0,2.0,90,0.00,,,0.02,0,Wunderground v.1.15,2013-02-05 23:36:00,
2013-02-05 18:41:00,30.2,27.6,29.96,SSE,161,1.0,2.0,90,0.00,,,0.02,0,Wunderground v.1.15,2013-02-05 23:41:00,
2013-02-05 18:47:00,30.2,27.9,29.96,SE,145,2.0,4.0,91,0.00,,,0.02,0,Wunderground v.1.15,2013-02-05 23:47:00,
2013-02-05 18:52:00,30.1,27.8,29.97,SSE,149,2.0,2.0,91,0.00,,,0.02,0,Wunderground v.1.15,2013-02-05 23:52:00,
2013-02-05 18:57:00,30.1,27.8,29.97,SSE,149,1.0,2.0,91,0.00,,,0.02,0,Wunderground v.1.15,2013-02-05 23:57:00,
2013-02-05 19:02:00,30.1,27.8,29.97,SSE,149,1.0,1.0,91,0.00,,,0.02,0,Wunderground v.1.15,2013-02-06 00:02:00,
2013-02-05 19:08:00,30.1,28.1,29.97,SE,135,1.0,2.0,92,0.00,,,0.02,0,Wunderground v.1.15,2013-02-06 00:08:00,
2013-02-05 19:13:00,30.1,28.1,29.97,SE,136,1.0,3.0,92,0.00,,,0.02,0,Wunderground v.1.15,2013-02-06 00:13:00,
2013-02-05 19:19:00,30.1,28.1,29.97,SE,142,1.0,3.0,92,0.00,,,0.02,0,Wunderground v.1.15,2013-02-06 00:19:00,
2013-02-05 19:25:00,30.1,28.1,29.97,SE,130,1.0,2.0,92,0.00,,,0.02,0,Wunderground v.1.15,2013-02-06 00:25:00,
2013-02-05 19:30:00,30.2,28.2,29.97,SE,130,1.0,2.0,92,0.00,,,0.02,0,Wunderground v.1.15,2013-02-06 00:30:00,
2013-02-05 19:36:00,30.2,28.2,29.97,SE,130,1.0,1.0,92,0.00,,,0.02,0,Wunderground v.1.15,2013-02-06 00:36:00,
2013-02-05 19:41:00,30.1,28.3,29.97,SE,136,1.0,1.0,93,0.00,,,0.02,0,Wunderground v.1.15,2013-02-06 00:41:00,
2013-02-05 19:46:00,30.1,28.3,29.97,NNW,327,1.0,2.0,93,0.00,,,0.02,0,Wunderground v.1.15,2013-02-06 00:46:00,
2013-02-05 19:52:00,30.1,28.1,29.97,NNW,327,1.0,1.0,92,0.00,,,0.02,0,Wunderground v.1.15,2013-02-06 00:52:00,
2013-02-05 19:57:00,30.1,28.3,29.97,NNW,327,0.0,1.0,93,0.00,,,0.02,0,Wunderground v.1.15,2013-02-06 00:57:00,
2013-02-05 20:02:00,30.1,28.3,29.97,East,97,0.0,1.0,93,0.00,,,0.02,0,Wunderground v.1.15,2013-02-06 01:02:00,
2013-02-05 20:08:00,30.1,28.3,29.98,SE,134,1.0,4.0,93,0.00,,,0.02,0,Wunderground v.1.15,2013-02-06 01:08:00,
2013-02-05 20:14:00,30.1,28.3,29.98,SE,134,1.0,3.0,93,0.00,,,0.02,0,Wunderground v.1.15,2013-02-06 01:14:00,
2013-02-05 20:19:00,30.1,28.3,29.98,SSW,195,1.0,3.0,93,0.00,,,0.02,0,Wunderground v.1.15,2013-02-06 01:19:00,
2013-02-05 20:24:00,30.1,28.3,29.98,WNW,288,1.0,2.0,93,0.00,,,0.02,0,Wunderground v.1.15,2013-02-06 01:24:00,
2013-02-05 20:30:00,30.0,28.2,29.98,NNW,340,2.0,4.0,93,0.00,,,0.02,0,Wunderground v.1.15,2013-02-06 01:30:00,
2013-02-05 20:35:00,29.9,28.1,29.98,NW,323,3.0,5.0,93,0.00,,,0.02,0,Wunderground v.1.15,2013-02-06 01:35:00,
2013-02-05 20:40:00,30.0,28.2,29.98,NW,320,2.0,2.0,93,0.00,,,0.02,0,Wunderground v.1.15,2013-02-06 01:40:00,
2013-02-05 20:46:00,30.1,28.3,29.98,NNW,332,1.0,2.0,93,0.00,,,0.02,0,Wunderground v.1.15,2013-02-06 01:46:00,
2013-02-05 20:52:00,30.1,28.3,29.98,NNW,333,1.0,1.0,93,0.00,,,0.02,0,Wunderground v.1.15,2013-02-06 01:52:00,
2013-02-05 20:58:00,30.1,28.3,29.99,WNW,294,1.0,2.0,93,0.00,,,0.02,0,Wunderground v.1.15,2013-02-06 01:58:00,
2013-02-05 21:03:00,30.1,28.3,29.98,WNW,294,1.0,1.0,93,0.00,,,0.02,0,Wunderground v.1.15,2013-02-06 02:03:00,
2013-02-05 21:08:00,30.1,28.3,29.99,WNW,289,0.0,1.0,93,0.00,,,0.02,0,Wunderground v.1.15,2013-02-06 02:08:00,
2013-02-05 21:13:00,30.1,28.3,29.98,SSW,192,1.0,2.0,93,0.00,,,0.02,0,Wunderground v.1.15,2013-02-06 02:13:00,
2013-02-05 21:19:00,30.1,28.3,29.99,SSE,153,1.0,4.0,93,0.00,,,0.02,0,Wunderground v.1.15,2013-02-06 02:19:00,
2013-02-05 21:25:00,30.2,28.4,29.99,SE,136,1.0,2.0,93,0.00,,,0.02,0,Wunderground v.1.15,2013-02-06 02:25:00,
2013-02-05 21:31:00,30.2,28.7,29.99,WNW,300,1.0,2.0,94,0.00,,,0.02,0,Wunderground v.1.15,2013-02-06 02:31:00,
2013-02-05 21:36:00,30.2,28.7,30.00,WNW,286,2.0,3.0,94,0.00,,,0.02,0,Wunderground v.1.15,2013-02-06 02:36:00,
2013-02-05 21:42:00,30.2,28.7,30.00,NW,317,2.0,4.0,94,0.00,,,0.02,0,Wunderground v.1.15,2013-02-06 02:42:00,
2013-02-05 21:48:00,30.2,28.7,30.00,NW,304,2.0,4.0,94,0.00,,,0.02,0,Wunderground v.1.15,2013-02-06 02:48:00,
2013-02-05 21:54:00,30.1,28.6,30.00,WNW,286,1.0,2.0,94,0.00,,,0.02,0,Wunderground v.1.15,2013-02-06 02:54:00,
2013-02-05 22:01:00,30.1,28.6,30.00,WNW,286,1.0,1.0,94,0.00,,,0.02,0,Wunderground v.1.15,2013-02-06 03:01:00,
2013-02-05 22:06:00,30.2,28.7,30.00,SE,134,1.0,4.0,94,0.00,,,0.02,0,Wunderground v.1.15,2013-02-06 03:06:00,
2013-02-05 22:12:00,30.3,28.8,30.00,ESE,112,2.0,6.0,94,0.00,,,0.02,0,Wunderground v.1.15,2013-02-06 03:12:00,
2013-02-05 22:17:00,30.3,28.5,30.00,SE,131,4.0,6.0,93,0.00,,,0.02,0,Wunderground v.1.15,2013-02-06 03:17:00,
2013-02-05 22:22:00,30.4,28.6,30.00,ESE,116,5.0,6.0,93,0.00,,,0.02,0,Wunderground v.1.15,2013-02-06 03:22:00,
2013-02-05 22:28:00,30.5,28.7,29.99,SE,142,4.0,6.0,93,0.00,,,0.02,0,Wunderground v.1.15,2013-02-06 03:28:00,
2013-02-05 22:34:00,30.4,28.6,30.00,SE,141,3.0,4.0,93,0.00,,,0.02,0,Wunderground v.1.15,2013-02-06 03:34:00,
2013-02-05 22:40:00,30.4,28.6,30.00,SE,134,3.0,3.0,93,0.00,,,0.02,0,Wunderground v.1.15,2013-02-06 03:40:00,
2013-02-05 22:46:00,30.5,28.7,30.00,South,170,2.0,3.0,93,0.00,,,0.02,0,Wunderground v.1.15,2013-02-06 03:46:00,
2013-02-05 22:52:00,30.5,28.7,30.00,SE,129,1.0,5.0,93,0.00,,,0.02,0,Wunderground v.1.15,2013-02-06 03:52:00,
2013-02-05 22:58:00,30.4,28.6,30.00,SE,132,3.0,5.0,93,0.00,,,0.02,0,Wunderground v.1.15,2013-02-06 03:58:00,
2013-02-05 23:03:00,30.4,28.6,30.00,SE,133,2.0,3.0,93,0.00,,,0.02,0,Wunderground v.1.15,2013-02-06 04:03:00,
2013-02-05 23:09:00,30.4,28.6,30.00,WSW,238,1.0,4.0,93,0.00,,,0.02,0,Wunderground v.1.15,2013-02-06 04:09:00,
2013-02-05 23:15:00,30.4,28.6,30.00,SSE,152,1.0,2.0,93,0.00,,,0.02,0,Wunderground v.1.15,2013-02-06 04:15:00,
2013-02-05 23:22:00,30.4,28.6,30.01,SW,219,1.0,2.0,93,0.00,,,0.02,0,Wunderground v.1.15,2013-02-06 04:22:00,
2013-02-05 23:27:00,30.4,28.6,30.00,WSW,254,2.0,3.0,93,0.00,,,0.02,0,Wunderground v.1.15,2013-02-06 04:27:00,
2013-02-05 23:33:00,30.4,28.6,30.00,West,272,2.0,2.0,93,0.00,,,0.02,0,Wunderground v.1.15,2013-02-06 04:33:00,
2013-02-05 23:39:00,30.3,28.5,30.01,West,277,2.0,2.0,93,0.00,,,0.02,0,Wunderground v.1.15,2013-02-06 04:39:00,
2013-02-05 23:45:00,30.4,28.6,30.01,WSW,257,2.0,5.0,93,0.00,,,0.02,0,Wunderground v.1.15,2013-02-06 04:45:00,
2013-02-05 23:50:00,30.3,28.5,30.01,SW,224,3.0,3.0,93,0.00,,,0.02,0,Wunderground v.1.15,2013-02-06 04:50:00,
2013-02-05 23:55:00,30.3,28.5,30.01,WNW,286,2.0,3.0,93,0.00,,,0.02,0,Wunderground v.1.15,2013-02-06 04:55:00,